Location: Clanezzo
(45.7500°N, 9.6000°E)
Time: 21:50:48
(UTC+00:00)

EO-79 - Pass Details

Date: 02 July 2022
Orbit: 588 x 603 km, 98.0° (Epoch: 07 August)

Event Time Altitude Azimuth Distance (km) Brightness Sun altitude
Rises 23:42:44 0° 35° (NE) 2,856 ? -21.2°
Reaches altitude 10° 23:46:44 10° 73° (ENE) 1,949 ? -21.1°
Maximum altitude 23:47:48 11° 88° (E) 1,894 ? -21.1°
Drops below altitude 10° 23:48:52 10° 103° (ESE) 1,946 ? -21.1°
Enters shadow 23:49:17 - 108° (ESE) 1,995 ? -21.1°
